EST,Max TemperatureF,Mean TemperatureF,Min TemperatureF,Max Dew PointF,MeanDew PointF,Min DewpointF,Max Humidity, Mean Humidity, Min Humidity, Max Sea Level PressureIn, Mean Sea Level PressureIn, Min Sea Level PressureIn, Max VisibilityMiles, Mean VisibilityMiles, Min VisibilityMiles, Max Wind SpeedMPH, Mean Wind SpeedMPH, Max Gust SpeedMPH,PrecipitationIn, CloudCover, Events, WindDirDegrees
2013-1-1,34,26,16,31,24,10,93,81,63,30.16,30.06,30.00,10,6,2,10,5,,0.02,6,Snow,284
2013-1-2,23,13,3,15,9,1,92,81,65,30.28,30.23,30.14,10,7,3,6,1,,0.00,0,,189
2013-1-3,30,16,1,21,10,-4,92,72,52,30.30,30.25,30.21,10,8,3,13,3,18,0.00,3,,244
2013-1-4,32,29,25,22,19,16,72,66,59,30.32,30.28,30.25,10,10,10,20,12,26,0.00,3,,244
2013-1-5,37,24,12,27,18,9,92,77,57,30.40,30.31,30.17,10,7,0,9,4,,0.00,2,Fog,210
2013-1-6,37,32,28,32,27,23,87,75,67,30.32,30.11,30.00,10,9,5,17,9,26,0.00,8,,242
2013-1-7,34,26,19,25,23,16,92,78,64,30.50,30.38,30.29,10,6,3,8,4,,0.00,5,,215
2013-1-8,44,29,14,30,19,11,93,83,58,30.38,30.30,30.23,10,5,2,6,0,,0.00,0,,225
2013-1-9,46,34,21,38,31,19,89,80,65,30.53,30.34,30.23,10,9,4,12,3,20,0.08,3,Rain,236
2013-1-10,39,31,23,30,26,21,93,82,67,30.59,30.48,30.20,10,6,0,6,1,,0.00,1,Fog,42
2013-1-11,60,48,37,52,43,29,100,86,67,30.19,29.99,29.91,10,6,0,15,4,25,0.42,6,Fog-Rain-Thunderstorm,198
2013-1-12,64,50,36,59,50,35,100,90,73,30.06,29.99,29.87,10,6,0,10,2,,0.01,7,Fog-Rain,175
2013-1-13,64,53,41,59,51,37,94,85,70,30.06,29.88,29.78,10,8,4,22,11,33,0.27,7,Rain,220
2013-1-14,41,34,27,36,25,21,87,74,64,30.41,30.30,30.06,10,10,9,14,8,20,0.00,5,,330
2013-1-15,33,29,25,23,21,20,81,71,61,30.40,30.30,30.10,10,10,8,14,5,,0.00,1,,39
2013-1-16,36,34,32,29,26,23,85,74,67,30.07,30.01,29.94,10,9,6,13,4,,0.00,6,,229
2013-1-17,37,32,27,28,25,15,78,71,60,30.32,30.16,30.07,10,10,8,16,5,23,0.00,5,,275
2013-1-18,35,26,19,21,16,9,81,62,52,30.54,30.42,30.23,10,10,10,14,8,24,0.00,0,,220
2013-1-19,53,44,35,27,23,21,57,45,31,30.22,30.05,29.86,10,10,10,22,14,36,0.00,0,,215
2013-1-20,45,34,24,31,17,13,63,54,43,30.21,30.09,29.84,10,10,10,22,15,34,0.00,2,,281
2013-1-21,25,18,12,18,12,-1,82,68,54,30.20,30.07,29.99,10,7,1,21,10,32,0.00,8,Snow,271
2013-1-22,15,12,8,-1,-2,-4,61,54,45,30.36,30.30,30.20,10,10,10,15,11,23,0.00,3,,271
2013-1-23,21,15,9,14,6,-1,86,65,40,30.35,30.22,30.05,10,7,2,12,6,,0.00,7,Snow,237
2013-1-24,23,18,14,16,10,4,86,71,48,30.58,30.34,30.05,10,7,2,14,4,21,0.00,5,Snow,314
2013-1-25,21,19,17,18,12,5,86,75,57,30.50,30.15,30.01,10,6,0,9,5,,0.17,8,Fog-Snow,144
2013-1-26,28,24,16,21,18,9,88,72,54,30.48,30.27,30.09,10,7,2,10,6,,0.00,8,Snow,293
2013-1-27,35,19,3,27,15,0,88,71,54,30.53,30.43,30.26,10,8,4,8,2,,0.08,3,Rain,114
2013-1-28,51,42,33,49,40,30,96,90,83,30.24,30.09,30.01,8,5,2,15,5,24,0.30,8,Rain,199
2013-1-29,68,56,44,55,50,45,100,86,61,30.06,29.96,29.68,10,5,0,17,5,23,0.00,6,Fog,189
2013-1-30,64,50,35,55,48,29,94,78,63,29.64,29.39,29.25,10,9,2,28,12,41,0.33,6,Rain-Snow,206
2013-1-31,36,28,21,27,19,12,86,74,53,29.93,29.80,29.45,10,4,0,30,19,45,0.01,8,Snow,263